RH
74 76 76 76 73 74 73 73 76 72 71 68 65 63 60 59 56 53 50 48 47 48
64 66 70 72 72 73 75 77 78 78 77 71 69 68 66 61 57 54 50 49 50 49
68 70 72 75 81 81 82 80 72 72 75 70 70 68 64 60 56 54 51 50 49 48
66 69 74 79 79 80 85 78 69 71 74 69 68 66 61 57 52 53 52 50 49 49
52 65 73 74 77 77 71 65 63 68 68 64 62 59 57 58 57 57 57 55 54 52
42 47 53 60 60 60 58 55 56 52 48 50 51 50 52 53 53 53 55 55 58 56
39 41 43 46 47 47 46 47 48 47 44 45 45 47 45 46 48 48 51 52 52 52
46 46 47 48 49 50 51 52 52 52 52 51 50 48 48 49 49 50 52 54 56 59
54 54 54 55 55 57 58 58 57 55 55 55 54 53 55 55 54 53 55 59 60 62
59 59 60 62 63 63 61 59 57 57 57 58 58 59 58 57 58 60 63 64 67 69
60 63 66 69 69 67 67 66 66 65 64 63 63 63 64 65 67 68 70 72 75 76
61 65 68 71 74 75 76 76 74 72 71 69 65 63 68 72 74 77 78 80 78 71
65 68 73 76 80 83 81 81 81 77 75 72 66 70 71 81 85 85 84 71 61 53
68 71 75 77 81 85 82 79 76 75 72 69 70 74 77 85 86 81 69 55 50 52